{"data":{"norad_id":69352,"intl_designator":"2026-122Z","name":"STARLINK-37778","alt_names":[],"object_type":"PAYLOAD","status":"ACTIVE","operator":null,"country":"US","launch_date":"2026-06-03","launch_site_code":"AFWTR","launch_vehicle":null,"mission":null,"orbit_class":"UNKNOWN","rcs_meters":null,"size_class":null,"mass_kg":null,"dimensions":null,"purposes":["comms"],"wikipedia_slug":null,"has_3d_model":false,"image_url":null,"decayed_at":null,"tle_current":{"epoch":"2026-09-19T07:47:06.524448Z","epoch_age_seconds":130475,"freshness":"FRESH","line1":"1 69352U 26122Z   26262.32438107  .00019235  00000+0  59658-3 0  9999","line2":"2 69352  97.2848 291.0282 0001107  87.8902 272.2467 15.33446718 16629","mean_motion":15.33446718,"eccentricity":0.0001107,"inclination_deg":97.2848,"raan_deg":291.0282,"arg_perigee_deg":87.8902,"mean_anomaly_deg":272.2467,"bstar":0.00059658,"rev_number":1662,"period_min":93.906099448837,"perigee_km":464.78046809415,"apogee_km":466.29565775308,"semimajor_km":6843.6750629236,"source":"CELESTRAK","updated_at":"2026-09-20T09:00:44.163778Z"}}}